CST,Max TemperatureF,Mean TemperatureF,Min TemperatureF,Max Dew PointF,MeanDew PointF,Min DewpointF,Max Humidity, Mean Humidity, Min Humidity, Max Sea Level PressureIn, Mean Sea Level PressureIn, Min Sea Level PressureIn, Max VisibilityMiles, Mean VisibilityMiles, Min VisibilityMiles, Max Wind SpeedMPH, Mean Wind SpeedMPH, Max Gust SpeedMPH,PrecipitationIn, CloudCover, Events, WindDirDegrees
2012-12-1,37,35,33,36,33,28,100,90,81,30.09,29.85,29.74,10,3,0,7,3,,0.00,8,Fog,155
2012-12-2,37,36,35,36,34,34,93,92,87,29.98,29.91,29.82,5,4,2,9,5,,0.00,8,,194
2012-12-3,48,42,37,45,38,28,93,85,61,29.82,29.63,29.48,10,6,0,29,7,38,0.00,5,Fog-Rain,199
2012-12-4,37,28,19,27,14,10,74,61,51,30.41,30.13,29.77,10,10,10,29,18,34,0.00,0,,283
2012-12-5,37,26,14,19,15,10,86,67,48,30.42,30.22,29.85,10,10,10,13,6,18,0.00,2,,171
2012-12-6,42,35,28,34,26,19,76,65,48,29.96,29.80,29.69,10,10,10,22,14,26,0.00,6,,243
2012-12-7,30,26,21,19,18,12,74,68,59,30.09,30.03,29.96,10,10,10,16,9,18,0.00,5,,277
2012-12-8,30,26,21,25,19,12,80,74,64,30.12,30.08,30.06,10,10,10,13,7,,0.00,6,Snow,49
2012-12-9,33,28,21,30,26,18,93,85,74,30.12,30.04,29.93,10,5,1,24,9,26,0.00,8,Snow,58
2012-12-10,21,14,6,18,9,3,86,79,68,29.94,29.89,29.84,10,8,2,16,9,22,0.00,5,Snow,246
2012-12-11,17,12,6,10,7,3,85,79,68,30.02,29.85,29.77,10,9,4,15,7,,0.00,6,Snow,232
2012-12-12,33,20,6,27,16,3,93,82,74,30.04,29.95,29.87,10,10,10,14,5,17,0.00,4,,112
2012-12-13,30,21,12,25,20,10,93,82,69,30.17,30.04,29.91,10,9,1,9,4,,0.00,4,Snow,303
2012-12-14,33,20,8,28,19,7,93,85,79,30.17,30.09,29.93,10,10,7,21,6,23,0.00,3,,107
2012-12-15,37,35,33,36,33,28,100,91,81,29.92,29.67,29.53,10,6,0,23,15,28,0.00,7,Fog-Rain,71
2012-12-16,35,30,24,34,26,19,100,86,74,29.75,29.66,29.53,10,9,0,17,7,22,0.00,8,,300
2012-12-17,26,24,21,21,19,18,93,80,69,29.76,29.74,29.70,10,10,10,18,12,25,0.00,8,,297
2012-12-18,26,24,21,21,20,18,93,84,74,29.81,29.74,29.70,10,10,10,7,2,,0.00,7,,214
2012-12-19,33,27,21,27,24,19,93,83,69,30.01,29.92,29.81,10,8,3,16,6,,0.00,7,Snow,220
2012-12-20,28,22,15,23,19,9,80,76,68,30.02,29.94,29.86,10,10,10,28,12,36,0.00,6,,332
2012-12-21,23,16,10,10,7,1,85,69,54,30.23,30.18,30.03,10,10,10,18,11,23,0.00,0,,280
2012-12-22,28,19,10,16,10,5,85,74,55,30.17,30.05,29.94,10,10,10,23,8,30,0.00,2,Snow,253
2012-12-23,21,18,14,9,7,7,73,66,54,30.17,30.12,30.06,10,10,10,14,9,18,0.00,2,,324
2012-12-24,15,9,3,7,1,-2,79,65,53,30.29,30.14,30.05,10,10,4,13,9,,0.00,3,Snow,298
2012-12-25,12,6,0,1,-3,-8,78,69,62,30.48,30.41,30.29,10,10,10,13,8,,0.00,0,,254
2012-12-26,17,10,3,10,3,-2,85,76,63,30.41,30.34,30.28,10,10,10,8,5,,0.00,3,,219
2012-12-27,24,14,5,19,9,0,93,79,63,30.29,30.25,30.19,10,9,3,6,4,,0.00,5,Snow,199
2012-12-28,26,20,12,21,18,10,93,86,80,30.18,30.10,30.01,10,7,0,8,1,,0.00,8,Fog-Snow,108
2012-12-29,21,16,10,18,11,7,92,80,68,30.11,30.03,29.99,10,10,5,17,6,,0.00,7,Snow,236
2012-12-30,21,12,3,12,6,0,85,74,63,30.16,30.03,29.87,10,10,10,12,7,20,0.00,2,,226
2012-12-31,21,12,3,16,1,-4,80,66,57,30.24,30.13,29.89,10,10,10,18,11,24,0.00,2,Snow,292